EW2974 Weather Reports


Display with metric or nautical units.
time (UTC)temp
F
wind
direction
speed
MPH
gust
MPH
rain 1hr
in
rain 24hr
in
rain mn
in
humidity
%
barometer
mb
20260503010406 40 212 0.0 0.0 0.00 0.15 0.15 72 1016.6
20260503004406 40 212 0.0 0.0 0.00 0.15 0.15 68 1016.6
20260503003905 41 212 0.0 0.0 0.00 0.15 0.15 68 1016.6
20260503002905 41 212 0.0 0.0 0.00 0.15 0.15 68 1016.6
20260503002405 41 212 0.0 0.0 0.00 0.15 0.15 66 1016.4
20260503001906 41 212 0.0 0.0 0.00 0.15 0.15 66 1016.5
20260503001405 41 212 0.0 0.0 0.00 0.15 0.15 66 1016.5
20260503000905 41 212 0.0 0.0 0.00 0.15 0.15 65 1016.4
20260503000407 42 212 0.0 0.0 0.00 0.15 0.15 66 1016.4
20260502235405 42 212 0.0 0.0 0.00 0.15 0.15 66 1016.2
20260502234905 42 212 0.0 0.0 0.00 0.15 0.15 63 1016.2
20260502233905 42 212 0.0 0.0 0.00 0.15 0.15 64 1016.2
20260502233406 42 212 1.0 5.0 0.00 0.15 0.15 64 1016.2
20260502232905 42 45 0.0 0.0 0.00 0.15 0.15 64 1016.2
20260502231905 43 45 0.0 0.0 0.00 0.15 0.15 65 1016.2
20260502231405 43 45 0.0 0.0 0.00 0.15 0.15 64 1016.1
20260502230905 43 45 0.0 5.0 0.00 0.15 0.15 60 1016.1
20260502230405 43 31 0.0 0.0 0.00 0.15 0.15 62 1016.1
20260502225905 43 31 0.0 0.0 0.00 0.15 0.15 61 1016.1
20260502225405 43 35 0.0 1.0 0.00 0.15 0.15 60 1016.0
20260502224905 44 47 0.0 1.0 0.00 0.15 0.15 59 1015.9
20260502224405 44 47 1.0 5.0 0.00 0.15 0.15 59 1015.9
20260502223905 44 67 1.0 3.0 0.00 0.15 0.15 60 1015.8
20260502223405 44 71 0.0 0.0 0.00 0.15 0.15 62 1015.8
20260502222905 44 73 1.0 5.0 0.00 0.15 0.15 60 1015.8
20260502222405 44 43 0.0 0.0 0.00 0.15 0.15 57 1015.8
20260502221905 44 43 0.0 1.0 0.00 0.15 0.15 56 1015.7
20260502221405 44 62 0.0 3.0 0.00 0.15 0.15 56 1015.7
20260502220905 44 67 0.0 0.0 0.00 0.15 0.15 57 1015.7
20260502215905 44 67 0.0 0.0 0.00 0.15 0.15 55 1015.8
20260502214906 45 92 0.0 0.0 0.00 0.15 0.15 56 1015.6
20260502214405 45 92 1.0 6.0 0.00 0.15 0.15 56 1015.5
20260502212905 45 337 0.0 0.0 0.00 0.15 0.15 55 1015.4
20260502212405 45 337 0.0 3.0 0.00 0.15 0.15 56 1015.3
20260502211905 45 270 0.0 1.0 0.00 0.15 0.15 56 1015.2
20260502211405 45 270 1.0 6.0 0.00 0.15 0.15 55 1015.3
20260502210905 45 248 1.0 6.0 0.00 0.15 0.15 54 1015.3
20260502210405 45 109 0.0 1.0 0.00 0.15 0.15 57 1015.2
20260502205906 45 243 0.0 0.0 0.00 0.15 0.15 55 1015.2
20260502205405 45 52 0.0 0.0 0.00 0.15 0.15 62 1015.3
20260502204405 45 293 0.0 0.0 0.00 0.15 0.15 64 1015.3
20260502203405 45 292 0.0 0.0 0.00 0.15 0.15 61 1015.3
20260502202905 44 293 0.0 0.0 0.00 0.15 0.15 64 1015.4
20260502201905 44 280 2.0 3.0 0.00 0.15 0.15 61 1015.4
20260502200905 44 271 2.0 5.0 0.00 0.15 0.15 64 1015.5
20260502200405 44 271 1.0 5.0 0.00 0.15 0.15 64 1015.5
20260502195405 44 26 0.0 0.0 0.00 0.15 0.15 65 1015.6
20260502194405 44 26 0.0 0.0 0.00 0.15 0.15 66 1015.8
20260502193906 44 26 0.0 0.0 0.00 0.15 0.15 64 1015.9
20260502193405 44 26 0.0 1.0 0.00 0.15 0.15 65 1015.9
20260502192905 44 138 0.0 0.0 0.00 0.16 0.15 66 1015.9
20260502192405 44 138 0.0 0.0 0.00 0.16 0.15 65 1016.0
20260502191905 45 138 0.0 5.0 0.00 0.16 0.15 64 1016.0
20260502191405 44 120 0.0 1.0 0.00 0.16 0.15 65 1016.0
20260502190405 44 116 0.0 0.0 0.00 0.17 0.15 66 1016.3
20260502185905 44 116 0.0 0.0 0.00 0.18 0.15 68 1016.3
20260502185405 43 144 1.0 5.0 0.00 0.18 0.15 69 1016.3
20260502184905 43 158 0.0 1.0 0.00 0.19 0.15 73 1016.4
20260502184406 43 234 1.0 3.0 0.00 0.19 0.15 67 1016.4
20260502183405 43 45 1.0 5.0 0.00 0.19 0.15 68 1016.5
20260502182905 42 296 0.0 0.0 0.00 0.20 0.15 71 1016.6
20260502182405 42 295 0.0 0.0 0.00 0.20 0.15 70 1016.7
20260502181905 42 294 0.0 0.0 0.00 0.21 0.15 69 1016.6
20260502181405 42 293 0.0 1.0 0.00 0.21 0.15 69 1016.7
20260502180905 42 0 0.0 0.0 0.00 0.21 0.15 68 1016.8
20260502180405 42 22 0.0 5.0 0.00 0.22 0.15 71 1016.7
20260502170405 41 326 0.0 1.0 0.00 0.27 0.15 81 1016.9
20260502163905 39 74 0.0 0.0 0.00 0.30 0.15 82 1017.0
20260502163405 39 5 0.0 0.0 0.00 0.31 0.15 85 1017.0
20260502162905 39 5 0.0 0.0 0.00 0.33 0.15 85 1016.9
20260502162405 39 28 0.0 0.0 0.00 0.34 0.15 87 1017.0
20260502161405 38 28 0.0 0.0 0.00 0.36 0.15 86 1017.0
20260502160905 38 22 0.0 0.0 0.00 0.37 0.15 86 1017.0
20260502160405 39 69 1.0 3.0 0.00 0.38 0.15 87 1016.8
20260502151405 38 72 0.0 0.0 0.00 0.44 0.15 91 1016.7
20260502150905 37 77 0.0 0.0 0.00 0.45 0.15 91 1016.8
20260502150405 37 77 0.0 0.0 0.00 0.46 0.15 91 1016.8
20260502130405 36 332 0.0 0.0 0.00 0.51 0.14 93 1016.1
20260502122905 36 331 0.0 0.0 0.01 0.52 0.14 94 1016.2
20260502122405 36 331 0.0 0.0 0.01 0.52 0.14 94 1016.1
20260502121905 36 331 0.0 0.0 0.01 0.52 0.14 94 1016.1
20260502121405 36 329 0.0 0.0 0.01 0.52 0.14 94 1016.0
20260502120905 36 330 0.0 0.0 0.02 0.52 0.14 94 1015.9
20260502120405 36 329 0.0 0.0 0.02 0.52 0.14 94 1015.8
20260502115905 36 329 0.0 0.0 0.03 0.52 0.14 94 1015.7
20260502115404 36 329 0.0 0.0 0.03 0.52 0.14 94 1015.6
20260502114404 36 329 0.0 0.0 0.03 0.52 0.14 93 1015.6
20260502113905 36 330 0.0 0.0 0.04 0.52 0.14 93 1015.7
20260502112905 35 329 0.0 0.0 0.05 0.51 0.13 93 1015.8
20260502112405 35 329 0.0 0.0 0.05 0.51 0.13 93 1015.9
20260502111905 35 330 0.0 0.0 0.05 0.51 0.13 93 1015.9
20260502111404 35 329 0.0 0.0 0.05 0.51 0.13 93 1015.8
20260502110905 36 330 0.0 0.0 0.04 0.50 0.12 93 1015.7
20260502105905 36 329 0.0 0.0 0.04 0.49 0.11 93 1015.5
20260502105405 36 330 0.0 0.0 0.04 0.49 0.11 93 1015.5
20260502104905 36 329 0.0 0.0 0.04 0.49 0.11 93 1015.5
20260502103405 36 329 0.0 0.0 0.02 0.47 0.09 92 1015.3
20260502102905 37 329 0.0 0.0 0.01 0.46 0.08 93 1015.2
20260502101905 37 329 0.0 0.0 0.02 0.46 0.08 93 1015.2
20260502101405 37 329 0.0 0.0 0.04 0.46 0.08 93 1015.1
20260502100905 37 329 0.0 0.0 0.06 0.46 0.08 93 1015.1
20260502100404 37 329 0.0 0.0 0.05 0.45 0.07 93 1015.2
20260502091405 38 329 0.0 0.0 0.03 0.42 0.04 91 1015.0
20260502090905 38 329 0.0 0.0 0.01 0.40 0.02 91 1015.1
20260502090404 38 329 0.0 0.0 0.01 0.40 0.02 92 1015.1
20260502071405 39 329 0.0 0.0 0.00 0.38 0.00 93 1014.8
20260502070905 39 329 0.0 0.0 0.00 0.38 0.00 93 1014.8
20260502070405 39 329 0.0 0.0 0.00 0.38 0.00 93 1014.9
20260502065405 39 329 0.0 0.0 0.00 0.38 0.00 93 1014.9
20260502064904 39 329 0.0 0.0 0.00 0.38 0.00 93 1014.9
20260502064405 39 329 0.0 0.0 0.00 0.38 0.00 93 1015.0
20260502063905 39 329 0.0 0.0 0.00 0.38 0.00 93 1015.0
20260502063405 39 329 0.0 0.0 0.00 0.38 0.00 93 1015.0
20260502062905 39 329 0.0 0.0 0.00 0.38 0.00 93 1015.0
20260502062404 39 329 0.0 0.0 0.00 0.38 0.00 93 1015.0
20260502061904 39 329 0.0 0.0 0.00 0.38 0.00 93 1015.1
20260502060905 39 329 0.0 0.0 0.00 0.38 0.00 93 1015.2
20260502060404 39 329 0.0 0.0 0.00 0.38 0.00 93 1015.3
20260502055904 39 329 0.0 0.0 0.00 0.38 0.00 93 1015.3
20260502055405 39 329 0.0 0.0 0.00 0.38 0.00 93 1015.3
20260502054905 39 329 0.0 0.0 0.00 0.38 0.00 93 1015.2
20260502053405 39 329 0.0 0.0 0.00 0.38 0.00 93 1015.5
20260502052905 39 329 0.0 0.0 0.00 0.38 0.00 93 1015.5
20260502052405 39 329 0.0 0.0 0.00 0.38 0.00 93 1015.5
20260502051905 39 329 0.0 0.0 0.00 0.38 0.00 93 1015.4
20260502051405 38 329 0.0 0.0 0.00 0.38 0.00 93 1015.5
20260502050905 39 329 0.0 0.0 0.00 0.38 0.00 93 1015.5
20260502045905 38 329 0.0 0.0 0.00 0.38 0.00 93 1015.6
20260502044905 38 329 0.0 0.0 0.00 0.38 0.00 93 1015.7
20260502044405 38 329 0.0 0.0 0.00 0.38 0.00 93 1015.6
20260502043904 38 329 0.0 0.0 0.00 0.38 0.00 93 1015.6
20260502042904 38 329 0.0 0.0 0.00 0.38 0.00 93 1015.6
20260502042405 38 329 0.0 0.0 0.00 0.38 0.00 93 1015.6
20260502041905 38 329 0.0 0.0 0.00 0.38 0.00 93 1015.6
20260502041405 38 329 0.0 0.0 0.00 0.38 0.00 93 1015.6
20260502040904 38 329 0.0 0.0 0.00 0.38 0.00 93 1015.7
20260502040405 38 329 0.0 0.0 0.00 0.38 0.00 93 1015.7
20260502035905 38 329 0.0 0.0 0.00 0.38 0.38 93 1015.6
20260502035404 38 329 0.0 0.0 0.00 0.38 0.38 93 1015.6
20260502034905 37 329 0.0 0.0 0.00 0.38 0.38 93 1015.5
20260502034404 37 329 0.0 0.0 0.00 0.38 0.38 93 1015.5
20260502033905 37 329 0.0 0.0 0.00 0.38 0.38 93 1015.5
20260502033404 37 329 0.0 0.0 0.00 0.38 0.38 93 1015.5
20260502032404 37 329 0.0 0.0 0.00 0.38 0.38 93 1015.6
20260502031905 37 329 0.0 0.0 0.00 0.38 0.38 93 1015.5
20260502031405 37 329 0.0 0.0 0.00 0.38 0.38 92 1015.5
20260502030905 37 329 0.0 0.0 0.00 0.38 0.38 92 1015.4
20260502030405 37 329 0.0 0.0 0.00 0.38 0.38 92 1015.4
20260502025905 37 330 0.0 0.0 0.00 0.38 0.38 92 1015.3
20260502024905 37 330 0.0 0.0 0.00 0.38 0.38 92 1015.3
20260502024405 37 329 0.0 0.0 0.00 0.38 0.38 92 1015.3
20260502023905 37 329 0.0 0.0 0.00 0.38 0.38 92 1015.3
20260502022405 37 329 0.0 0.0 0.00 0.38 0.38 91 1015.4
20260502021905 37 329 0.0 0.0 0.00 0.38 0.38 91 1015.4
20260502021405 37 329 0.0 0.0 0.00 0.38 0.38 91 1015.3
20260502020905 38 329 0.0 0.0 0.00 0.38 0.38 91 1015.3
20260502020405 38 329 0.0 0.0 0.00 0.38 0.38 91 1015.2
20260502015905 38 329 0.0 0.0 0.00 0.38 0.38 91 1015.1
20260502015407 38 329 0.0 0.0 0.00 0.38 0.38 91 1015.0
20260502014905 38 329 0.0 0.0 0.00 0.38 0.38 91 1015.0
20260502014405 38 329 0.0 0.0 0.00 0.38 0.38 91 1014.9
20260502013905 38 329 0.0 0.0 0.00 0.38 0.38 90 1014.8
20260502012905 39 330 0.0 0.0 0.00 0.38 0.38 90 1014.6
20260502012404 39 329 0.0 0.0 0.00 0.38 0.38 90 1014.6
20260502010905 39 329 0.0 0.0 0.00 0.38 0.38 90 1014.6